Location: Unspecified
(51.5204°N, 0.0000°E)
Time: 16:55:24
(UTC+00:00)

Envisat - Visible Passes

Search period start: 18 November 2019 00:00
Search period end: 28 November 2019 00:00
Orbit: 764 x 766 km, 98.1° (Epoch: 18 November)

Date Brightness Start Highest point End Pass type
(mag) Time Alt. Az. Time Alt. Az. Time Alt. Az.
18 Nov 4.2 06:36:28 10° NNE 06:41:26 49° E 06:46:21 10° S visible
18 Nov 3.1 17:56:17 10° S 18:01:21 77° WSW 18:06:29 10° NNW visible
18 Nov 6.1 19:39:05 10° WSW 19:41:16 13° W 19:43:28 10° WNW visible
19 Nov 5.5 06:00:10 10° NE 06:04:23 25° E 06:08:34 10° SSE visible
19 Nov 3.1 17:19:41 10° SE 17:24:38 56° ENE 17:29:37 10° N visible
19 Nov 5.2 18:59:51 10° SSW 19:04:00 25° W 19:08:11 10° NW visible
20 Nov 6.2 05:24:48 10° ENE 05:27:07 13° E 05:29:26 10° ESE visible
20 Nov 3.8 16:43:43 10° ESE 16:48:06 30° ENE 16:52:30 10° N visible
20 Nov 4.0 18:22:02 10° S 18:26:57 48° W 18:31:53 10° NNW visible
21 Nov 4.6 06:25:17 10° NNE 06:30:06 40° E 06:34:52 10° SSE visible
21 Nov 2.9 17:45:00 10° SSE 17:50:05 87° ENE 17:55:13 10° NNW visible
21 Nov 5.8 19:26:49 10° WSW 19:29:50 16° W 19:32:51 10° NW visible
22 Nov 5.7 05:49:09 10° NE 05:52:59 21° E 05:56:48 10° SE visible
22 Nov 3.2 17:08:35 10° SE 17:13:25 46° ENE 17:18:16 10° N visible
22 Nov 4.9 18:48:11 10° SSW 18:52:37 30° W 18:57:06 10° NNW visible
23 Nov 6.4 05:14:52 10° ENE 05:15:40 10° E 05:16:27 10° E visible
23 Nov 3.6 06:50:38 10° NNE 06:55:43 65° ESE 07:00:46 10° S visible
23 Nov 4.0 16:32:48 10° ESE 16:36:55 26° ENE 16:41:04 10° N visible
23 Nov 3.6 18:10:37 10° S 18:15:38 59° W 18:20:40 10° NNW visible
24 Nov 4.9 06:14:09 10° NNE 06:18:45 33° E 06:23:19 10° SSE visible
24 Nov 2.9 17:33:46 10° SSE 17:38:49 73° ENE 17:43:54 10° N visible
24 Nov 5.6 19:14:50 10° SW 19:18:24 19° W 19:22:00 10° NW visible
25 Nov 5.9 05:38:14 10° NE 05:41:34 17° E 05:44:54 10° SE visible
25 Nov 3.4 16:57:32 10° SE 17:02:12 38° ENE 17:06:53 10° N visible
25 Nov 4.5 18:36:35 10° SSW 18:41:15 36° W 18:45:58 10° NNW visible
26 Nov 4.0 06:39:23 10° NNE 06:44:24 53° E 06:49:22 10° S visible
26 Nov 3.2 17:59:15 10° S 18:04:19 72° WSW 18:09:26 10° NNW visible
26 Nov 6.1 19:42:33 10° WSW 19:44:17 12° W 19:46:01 10° WNW visible
27 Nov 5.3 06:03:02 10° NE 06:07:22 27° E 06:11:41 10° SSE visible
27 Nov 3.0 17:22:35 10° SSE 17:27:34 60° ENE 17:32:35 10° N visible
27 Nov 5.3 19:02:59 10° SW 19:06:59 23° W 19:11:01 10° NW visible
